| time (UTC) | temp C | wind direction | speed KPH | gust KPH | rain 1hr cm | rain 24hr cm | rain mn cm | humidity % | barometer mb |
| 20260506203533 | 11 | 329 | 4.8 | 12.9 | 0.00 | 0.00 | 0.00 | 71 | 1011.7 |
| 20260506203059 | 11 | 105 | 6.4 | 12.9 | 0.00 | 0.00 | 0.00 | 72 | 1011.7 |
| 20260506202546 | 11 | 318 | 3.2 | 8.0 | 0.00 | 0.00 | 0.00 | 72 | 1011.7 |
| 20260506202031 | 11 | 16 | 3.2 | 8.0 | 0.00 | 0.00 | 0.00 | 73 | 1011.7 |
| 20260506201551 | 11 | 332 | 3.2 | 8.0 | 0.00 | 0.00 | 0.00 | 73 | 1011.7 |
| 20260506201030 | 11 | 5 | 3.2 | 8.0 | 0.00 | 0.00 | 0.00 | 72 | 1011.6 |
| 20260506200532 | 11 | 5 | 1.6 | 8.0 | 0.00 | 0.00 | 0.00 | 72 | 1011.6 |
| 20260506200049 | 11 | 32 | 4.8 | 9.7 | 0.00 | 0.00 | 0.00 | 72 | 1011.6 |
| 20260506195559 | 11 | 52 | 4.8 | 9.7 | 0.00 | 0.00 | 0.00 | 72 | 1011.5 |
| 20260506195043 | 11 | 26 | 3.2 | 9.7 | 0.00 | 0.00 | 0.00 | 72 | 1011.5 |
| 20260506194557 | 12 | 5 | 3.2 | 11.3 | 0.00 | 0.00 | 0.00 | 72 | 1011.4 |
| 20260506194101 | 12 | 11 | 4.8 | 14.5 | 0.00 | 0.00 | 0.00 | 71 | 1011.4 |
| 20260506193602 | 12 | 308 | 6.4 | 16.1 | 0.00 | 0.00 | 0.00 | 71 | 1011.4 |
| 20260506193028 | 12 | 13 | 6.4 | 16.1 | 0.00 | 0.00 | 0.00 | 70 | 1011.3 |
| 20260506192547 | 12 | 11 | 6.4 | 16.1 | 0.00 | 0.00 | 0.00 | 70 | 1011.2 |
| 20260506192043 | 12 | 16 | 4.8 | 9.7 | 0.00 | 0.00 | 0.00 | 70 | 1011.1 |
| 20260506191554 | 12 | 334 | 3.2 | 8.0 | 0.00 | 0.00 | 0.00 | 69 | 1011.1 |
| 20260506191045 | 12 | 336 | 3.2 | 8.0 | 0.00 | 0.00 | 0.00 | 69 | 1010.9 |
| 20260506190558 | 12 | 20 | 3.2 | 8.0 | 0.00 | 0.00 | 0.00 | 68 | 1010.9 |
| 20260506190041 | 12 | 49 | 1.6 | 6.4 | 0.00 | 0.00 | 0.00 | 67 | 1010.9 |
| 20260506185536 | 12 | 11 | 1.6 | 9.7 | 0.00 | 0.00 | 0.00 | 66 | 1010.8 |
| 20260506185047 | 12 | 19 | 4.8 | 11.3 | 0.00 | 0.00 | 0.00 | 66 | 1010.7 |
| 20260506184538 | 12 | 14 | 6.4 | 11.3 | 0.00 | 0.00 | 0.00 | 64 | 1010.7 |
| 20260506184041 | 12 | 343 | 3.2 | 11.3 | 0.00 | 0.00 | 0.00 | 64 | 1010.6 |
| 20260506183535 | 12 | 31 | 3.2 | 16.1 | 0.00 | 0.00 | 0.00 | 64 | 1010.6 |
| 20260506183027 | 12 | 55 | 6.4 | 16.1 | 0.00 | 0.00 | 0.00 | 63 | 1010.5 |
| 20260506182545 | 12 | 9 | 8.0 | 16.1 | 0.00 | 0.00 | 0.00 | 62 | 1010.4 |
| 20260506182029 | 12 | 9 | 4.8 | 9.7 | 0.00 | 0.00 | 0.00 | 61 | 1010.4 |
| 20260506181538 | 13 | 25 | 6.4 | 9.7 | 0.00 | 0.00 | 0.00 | 61 | 1010.3 |
| 20260506181040 | 13 | 24 | 4.8 | 11.3 | 0.00 | 0.00 | 0.00 | 60 | 1010.2 |
| 20260506180534 | 13 | 5 | 4.8 | 16.1 | 0.00 | 0.00 | 0.00 | 60 | 1010.2 |
| 20260506180051 | 13 | 5 | 4.8 | 16.1 | 0.00 | 0.00 | 0.00 | 60 | 1010.2 |
| 20260506175547 | 13 | 313 | 4.8 | 9.7 | 0.00 | 0.00 | 0.00 | 60 | 1010.1 |
| 20260506175043 | 13 | 24 | 4.8 | 9.7 | 0.00 | 0.00 | 0.00 | 62 | 1010.0 |
| 20260506174554 | 13 | 26 | 3.2 | 6.4 | 0.00 | 0.00 | 0.00 | 61 | 1009.9 |
| 20260506174031 | 13 | 5 | 1.6 | 6.4 | 0.00 | 0.00 | 0.00 | 60 | 1009.8 |
| 20260506173601 | 13 | 21 | 1.6 | 6.4 | 0.00 | 0.00 | 0.00 | 60 | 1009.8 |
| 20260506173042 | 13 | 5 | 1.6 | 6.4 | 0.00 | 0.00 | 0.00 | 59 | 1009.7 |
| 20260506172540 | 13 | 34 | 1.6 | 4.8 | 0.00 | 0.00 | 0.00 | 59 | 1009.7 |
| 20260506172029 | 13 | 15 | 1.6 | 6.4 | 0.00 | 0.00 | 0.00 | 59 | 1009.6 |
| 20260506171540 | 13 | 32 | 1.6 | 6.4 | 0.00 | 0.00 | 0.00 | 57 | 1009.5 |
| 20260506171037 | 13 | 5 | 3.2 | 8.0 | 0.00 | 0.00 | 0.00 | 57 | 1009.5 |
| 20260506170559 | 13 | 90 | 3.2 | 8.0 | 0.00 | 0.00 | 0.00 | 58 | 1009.6 |
| 20260506170044 | 13 | 31 | 3.2 | 8.0 | 0.00 | 0.00 | 0.00 | 56 | 1009.6 |
| 20260506165540 | 13 | 9 | 3.2 | 8.0 | 0.00 | 0.00 | 0.00 | 55 | 1009.5 |
| 20260506165106 | 13 | 39 | 3.2 | 8.0 | 0.00 | 0.00 | 0.00 | 57 | 1009.5 |
| 20260506164531 | 13 | 87 | 3.2 | 11.3 | 0.00 | 0.00 | 0.00 | 57 | 1009.5 |
| 20260506164027 | 13 | 70 | 4.8 | 11.3 | 0.00 | 0.00 | 0.00 | 57 | 1009.5 |
| 20260506163538 | 13 | 32 | 3.2 | 9.7 | 0.00 | 0.00 | 0.00 | 56 | 1009.5 |
| 20260506163027 | 13 | 53 | 4.8 | 9.7 | 0.00 | 0.00 | 0.00 | 55 | 1009.5 |
| 20260506162553 | 13 | 55 | 3.2 | 8.0 | 0.00 | 0.00 | 0.00 | 56 | 1009.5 |
| 20260506162039 | 13 | 99 | 1.6 | 11.3 | 0.00 | 0.00 | 0.00 | 55 | 1009.5 |
| 20260506161558 | 13 | 62 | 3.2 | 9.7 | 0.00 | 0.00 | 0.00 | 57 | 1009.5 |
| 20260506161045 | 13 | 28 | 4.8 | 9.7 | 0.00 | 0.00 | 0.00 | 54 | 1009.5 |
| 20260506160621 | 13 | 45 | 4.8 | 9.7 | 0.00 | 0.00 | 0.00 | 56 | 1009.5 |
| 20260506160106 | 13 | 350 | 3.2 | 12.9 | 0.00 | 0.00 | 0.00 | 55 | 1009.5 |
| 20260506155535 | 13 | 54 | 4.8 | 12.9 | 0.00 | 0.00 | 0.00 | 57 | 1009.4 |
| 20260506155049 | 13 | 97 | 4.8 | 11.3 | 0.00 | 0.00 | 0.00 | 57 | 1009.5 |
| 20260506154605 | 13 | 32 | 4.8 | 11.3 | 0.00 | 0.00 | 0.00 | 57 | 1009.5 |
| 20260506154101 | 13 | 108 | 3.2 | 9.7 | 0.00 | 0.00 | 0.00 | 57 | 1009.5 |
| 20260506153547 | 13 | 72 | 3.2 | 11.3 | 0.00 | 0.00 | 0.00 | 56 | 1009.4 |
| 20260506153028 | 13 | 94 | 3.2 | 8.0 | 0.00 | 0.00 | 0.00 | 56 | 1009.4 |
| 20260506152549 | 13 | 87 | 4.8 | 9.7 | 0.00 | 0.00 | 0.00 | 55 | 1009.4 |
| 20260506152036 | 13 | 36 | 4.8 | 8.0 | 0.00 | 0.00 | 0.00 | 55 | 1009.4 |
| 20260506151546 | 14 | 110 | 3.2 | 6.4 | 0.00 | 0.00 | 0.00 | 55 | 1009.4 |
| 20260506151035 | 14 | 43 | 1.6 | 9.7 | 0.00 | 0.00 | 0.00 | 56 | 1009.4 |
| 20260506150539 | 14 | 65 | 3.2 | 9.7 | 0.00 | 0.00 | 0.00 | 58 | 1009.4 |
| 20260506150050 | 14 | 96 | 3.2 | 9.7 | 0.00 | 0.00 | 0.00 | 56 | 1009.4 |
| 20260506145553 | 14 | 89 | 3.2 | 9.7 | 0.00 | 0.00 | 0.00 | 56 | 1009.3 |
| 20260506145040 | 14 | 103 | 3.2 | 6.4 | 0.00 | 0.00 | 0.00 | 57 | 1009.3 |
| 20260506144537 | 13 | 81 | 3.2 | 11.3 | 0.00 | 0.00 | 0.00 | 55 | 1009.3 |
| 20260506144100 | 13 | 71 | 3.2 | 11.3 | 0.00 | 0.00 | 0.00 | 57 | 1009.3 |
| 20260506143546 | 13 | 128 | 4.8 | 11.3 | 0.00 | 0.00 | 0.00 | 57 | 1009.3 |
| 20260506143030 | 14 | 49 | 4.8 | 12.9 | 0.00 | 0.00 | 0.00 | 56 | 1009.2 |
| 20260506142555 | 14 | 124 | 4.8 | 12.9 | 0.00 | 0.00 | 0.00 | 56 | 1009.2 |
| 20260506142054 | 14 | 74 | 1.6 | 11.3 | 0.00 | 0.00 | 0.00 | 55 | 1009.2 |
| 20260506141537 | 14 | 49 | 6.4 | 11.3 | 0.00 | 0.00 | 0.00 | 50 | 1009.3 |
| 20260506141030 | 14 | 5 | 8.0 | 11.3 | 0.00 | 0.00 | 0.00 | 51 | 1009.2 |
| 20260506140554 | 14 | 5 | 6.4 | 11.3 | 0.00 | 0.00 | 0.00 | 50 | 1009.3 |
| 20260506140029 | 14 | 261 | 4.8 | 14.5 | 0.00 | 0.00 | 0.00 | 50 | 1009.3 |
| 20260506135537 | 14 | 63 | 4.8 | 16.1 | 0.00 | 0.00 | 0.00 | 51 | 1009.3 |
| 20260506135048 | 15 | 273 | 8.0 | 16.1 | 0.00 | 0.00 | 0.00 | 51 | 1009.3 |
| 20260506134535 | 15 | 42 | 4.8 | 16.1 | 0.00 | 0.00 | 0.00 | 50 | 1009.2 |
| 20260506134039 | 15 | 58 | 6.4 | 16.1 | 0.00 | 0.00 | 0.00 | 50 | 1009.2 |
| 20260506133541 | 15 | 46 | 6.4 | 16.1 | 0.00 | 0.00 | 0.00 | 51 | 1009.2 |
| 20260506133103 | 15 | 355 | 4.8 | 16.1 | 0.00 | 0.00 | 0.00 | 53 | 1009.1 |
| 20260506132602 | 15 | 78 | 6.4 | 12.9 | 0.00 | 0.00 | 0.00 | 53 | 1009.1 |
| 20260506132037 | 15 | 38 | 6.4 | 14.5 | 0.00 | 0.00 | 0.00 | 52 | 1009.1 |
| 20260506131555 | 15 | 36 | 1.6 | 14.5 | 0.00 | 0.00 | 0.00 | 53 | 1009.0 |
| 20260506131049 | 15 | 35 | 4.8 | 14.5 | 0.00 | 0.00 | 0.00 | 53 | 1009.0 |
| 20260506130530 | 15 | 316 | 6.4 | 19.3 | 0.00 | 0.00 | 0.00 | 55 | 1009.0 |
| 20260506130030 | 15 | 15 | 9.7 | 19.3 | 0.00 | 0.00 | 0.00 | 56 | 1009.1 |
| 20260506125552 | 15 | 70 | 4.8 | 17.7 | 0.00 | 0.00 | 0.00 | 56 | 1009.0 |
| 20260506125053 | 14 | 14 | 8.0 | 20.9 | 0.00 | 0.00 | 0.00 | 56 | 1008.9 |
| 20260506124552 | 14 | 32 | 9.7 | 20.9 | 0.00 | 0.00 | 0.00 | 55 | 1008.9 |
| 20260506124041 | 14 | 340 | 8.0 | 20.9 | 0.00 | 0.00 | 0.00 | 55 | 1008.8 |
| 20260506123601 | 15 | 288 | 6.4 | 20.9 | 0.00 | 0.00 | 0.00 | 55 | 1008.8 |
| 20260506123053 | 15 | 5 | 8.0 | 17.7 | 0.00 | 0.00 | 0.00 | 54 | 1008.8 |
| 20260506122544 | 15 | 15 | 8.0 | 17.7 | 0.00 | 0.00 | 0.00 | 53 | 1008.8 |
| 20260506122046 | 16 | 360 | 6.4 | 19.3 | 0.00 | 0.00 | 0.00 | 52 | 1008.7 |
| 20260506121545 | 16 | 43 | 8.0 | 19.3 | 0.00 | 0.00 | 0.00 | 52 | 1008.6 |
| 20260506121026 | 15 | 44 | 6.4 | 17.7 | 0.00 | 0.00 | 0.00 | 54 | 1008.7 |
| 20260506120602 | 15 | 20 | 6.4 | 17.7 | 0.00 | 0.00 | 0.00 | 56 | 1008.8 |
| 20260506120050 | 14 | 28 | 11.3 | 17.7 | 0.00 | 0.00 | 0.00 | 56 | 1008.7 |
| 20260506115535 | 15 | 355 | 4.8 | 17.7 | 0.00 | 0.00 | 0.00 | 57 | 1008.6 |
| 20260506115042 | 15 | 70 | 8.0 | 19.3 | 0.00 | 0.00 | 0.00 | 56 | 1008.7 |
| 20260506114534 | 15 | 5 | 9.7 | 27.4 | 0.00 | 0.00 | 0.00 | 55 | 1008.7 |
| 20260506114102 | 16 | 46 | 12.9 | 27.4 | 0.00 | 0.00 | 0.00 | 52 | 1008.7 |
| 20260506113544 | 16 | 278 | 6.4 | 19.3 | 0.00 | 0.00 | 0.00 | 52 | 1008.7 |
| 20260506113032 | 16 | 58 | 8.0 | 16.1 | 0.00 | 0.00 | 0.00 | 53 | 1008.8 |
| 20260506112547 | 16 | 136 | 4.8 | 12.9 | 0.00 | 0.00 | 0.00 | 54 | 1008.7 |
| 20260506112026 | 16 | 316 | 6.4 | 16.1 | 0.00 | 0.00 | 0.00 | 54 | 1008.7 |
| 20260506111557 | 17 | 32 | 8.0 | 20.9 | 0.00 | 0.00 | 0.00 | 49 | 1008.7 |
| 20260506111044 | 17 | 12 | 8.0 | 22.5 | 0.00 | 0.00 | 0.00 | 48 | 1008.7 |
| 20260506110546 | 17 | 277 | 8.0 | 22.5 | 0.00 | 0.00 | 0.00 | 48 | 1008.7 |
| 20260506110048 | 16 | 53 | 8.0 | 22.5 | 0.00 | 0.00 | 0.00 | 51 | 1008.7 |
| 20260506105556 | 16 | 44 | 8.0 | 25.7 | 0.00 | 0.00 | 0.00 | 49 | 1008.7 |
| 20260506105059 | 16 | 306 | 8.0 | 24.1 | 0.00 | 0.00 | 0.00 | 56 | 1008.6 |
| 20260506104557 | 15 | 65 | 11.3 | 24.1 | 0.00 | 0.00 | 0.00 | 58 | 1008.7 |
| 20260506104109 | 15 | 34 | 6.4 | 17.7 | 0.00 | 0.00 | 0.00 | 63 | 1008.6 |
| 20260506103545 | 15 | 324 | 4.8 | 14.5 | 0.00 | 0.00 | 0.00 | 68 | 1008.6 |
| 20260506103035 | 14 | 306 | 9.7 | 14.5 | 0.00 | 0.00 | 0.00 | 66 | 1008.6 |
| 20260506102540 | 14 | 9 | 4.8 | 12.9 | 0.00 | 0.00 | 0.00 | 68 | 1008.7 |
| 20260506102036 | 14 | 25 | 6.4 | 17.7 | 0.00 | 0.00 | 0.00 | 67 | 1008.6 |
| 20260506101536 | 14 | 10 | 4.8 | 17.7 | 0.00 | 0.00 | 0.00 | 67 | 1008.5 |
| 20260506101030 | 14 | 304 | 4.8 | 17.7 | 0.00 | 0.00 | 0.00 | 67 | 1008.5 |
| 20260506100534 | 13 | 9 | 11.3 | 17.7 | 0.00 | 0.00 | 0.00 | 67 | 1008.5 |
| 20260506100056 | 13 | 5 | 8.0 | 16.1 | 0.00 | 0.00 | 0.00 | 68 | 1008.5 |
| 20260506095604 | 13 | 247 | 6.4 | 22.5 | 0.00 | 0.00 | 0.00 | 68 | 1008.5 |
| 20260506095038 | 14 | 26 | 11.3 | 22.5 | 0.00 | 0.00 | 0.00 | 64 | 1008.5 |
| 20260506094607 | 15 | 42 | 12.9 | 25.7 | 0.00 | 0.00 | 0.00 | 62 | 1008.5 |
| 20260506094034 | 16 | 37 | 9.7 | 19.3 | 0.00 | 0.00 | 0.00 | 61 | 1008.5 |
| 20260506093608 | 16 | 75 | 9.7 | 19.3 | 0.00 | 0.00 | 0.00 | 59 | 1008.4 |
| 20260506093030 | 15 | 5 | 9.7 | 20.9 | 0.00 | 0.00 | 0.00 | 59 | 1008.3 |
| 20260506092545 | 16 | 14 | 8.0 | 22.5 | 0.00 | 0.00 | 0.00 | 60 | 1008.4 |
| 20260506092028 | 15 | 53 | 6.4 | 22.5 | 0.00 | 0.00 | 0.00 | 63 | 1008.3 |
| 20260506091537 | 15 | 26 | 8.0 | 14.5 | 0.00 | 0.00 | 0.00 | 62 | 1008.3 |
| 20260506091056 | 15 | 53 | 4.8 | 16.1 | 0.00 | 0.00 | 0.00 | 63 | 1008.2 |
| 20260506090540 | 15 | 323 | 8.0 | 19.3 | 0.00 | 0.00 | 0.00 | 64 | 1008.2 |
| 20260506090109 | 15 | 46 | 8.0 | 19.3 | 0.00 | 0.00 | 0.00 | 62 | 1008.2 |
| 20260506085604 | 15 | 85 | 8.0 | 19.3 | 0.00 | 0.00 | 0.00 | 66 | 1008.2 |
| 20260506085057 | 15 | 55 | 4.8 | 14.5 | 0.00 | 0.00 | 0.00 | 69 | 1008.2 |
| 20260506084548 | 14 | 5 | 6.4 | 17.7 | 0.00 | 0.00 | 0.00 | 71 | 1008.1 |
| 20260506084100 | 14 | 345 | 4.8 | 19.3 | 0.00 | 0.00 | 0.00 | 74 | 1008.1 |
| 20260506083554 | 13 | 18 | 6.4 | 22.5 | 0.00 | 0.00 | 0.00 | 74 | 1008.1 |
| 20260506083053 | 13 | 16 | 8.0 | 22.5 | 0.00 | 0.00 | 0.00 | 74 | 1008.1 |
| 20260506082543 | 13 | 326 | 6.4 | 20.9 | 0.00 | 0.00 | 0.00 | 75 | 1008.1 |
| 20260506082026 | 12 | 55 | 11.3 | 20.9 | 0.00 | 0.00 | 0.00 | 76 | 1008.2 |
| 20260506081625 | 12 | 39 | 4.8 | 17.7 | 0.00 | 0.00 | 0.00 | 77 | 1008.1 |
| 20260506081039 | 12 | 317 | 8.0 | 20.9 | 0.00 | 0.00 | 0.00 | 77 | 1008.2 |
| 20260506080533 | 12 | 49 | 8.0 | 20.9 | 0.00 | 0.00 | 0.00 | 77 | 1008.1 |
| 20260506073025 | 11 | 65 | 6.4 | 12.9 | 0.00 | 0.00 | 0.00 | 82 | 1008.1 |
| 20260506072551 | 11 | 346 | 3.2 | 12.9 | 0.00 | 0.00 | 0.00 | 82 | 1008.1 |
| 20260506072047 | 11 | 30 | 3.2 | 12.9 | 0.00 | 0.00 | 0.00 | 83 | 1008.1 |
| 20260506071542 | 11 | 321 | 3.2 | 11.3 | 0.00 | 0.00 | 0.00 | 82 | 1008.1 |
| 20260506071034 | 11 | 336 | 6.4 | 12.9 | 0.00 | 0.00 | 0.00 | 82 | 1008.1 |
| 20260506070557 | 11 | 50 | 6.4 | 14.5 | 0.00 | 0.00 | 0.00 | 82 | 1008.1 |
| 20260506062041 | 10 | 324 | 3.2 | 19.3 | 0.00 | 0.00 | 0.00 | 83 | 1007.8 |
| 20260506061556 | 10 | 360 | 6.4 | 19.3 | 0.00 | 0.00 | 0.00 | 83 | 1007.8 |
| 20260506061038 | 10 | 321 | 6.4 | 14.5 | 0.00 | 0.00 | 0.00 | 83 | 1007.8 |
| 20260506060531 | 10 | 319 | 4.8 | 17.7 | 0.00 | 0.00 | 0.00 | 83 | 1007.8 |
| 20260506051034 | 10 | 41 | 3.2 | 8.0 | 0.00 | 0.00 | 0.00 | 86 | 1007.8 |
| 20260506050545 | 10 | 53 | 3.2 | 11.3 | 0.00 | 0.00 | 0.00 | 86 | 1007.8 |
| 20260506045048 | 10 | 40 | 3.2 | 9.7 | 0.00 | 0.00 | 0.00 | 87 | 1007.8 |
| 20260506044548 | 10 | 47 | 3.2 | 8.0 | 0.00 | 0.00 | 0.00 | 87 | 1007.8 |
| 20260506044044 | 10 | 333 | 3.2 | 9.7 | 0.00 | 0.00 | 0.00 | 87 | 1007.9 |
| 20260506043533 | 9 | 19 | 4.8 | 9.7 | 0.00 | 0.00 | 0.00 | 88 | 1007.8 |
| 20260506043039 | 9 | 5 | 4.8 | 9.7 | 0.00 | 0.00 | 0.00 | 88 | 1007.9 |
| 20260506042534 | 9 | 322 | 1.6 | 8.0 | 0.00 | 0.00 | 0.00 | 88 | 1007.8 |
| 20260506042049 | 9 | 5 | 1.6 | 8.0 | 0.00 | 0.00 | 0.00 | 88 | 1007.9 |
| 20260506041557 | 9 | 355 | 3.2 | 8.0 | 0.00 | 0.00 | 0.00 | 88 | 1007.9 |
| 20260506041029 | 9 | 33 | 3.2 | 9.7 | 0.00 | 0.00 | 0.00 | 87 | 1007.9 |
| 20260506040537 | 9 | 360 | 3.2 | 11.3 | 0.00 | 0.00 | 0.00 | 86 | 1007.9 |
| 20260506035544 | 10 | 41 | 6.4 | 11.3 | 0.00 | 0.00 | 0.00 | 85 | 1008.0 |
| 20260506035047 | 10 | 355 | 3.2 | 11.3 | 0.00 | 0.00 | 0.00 | 85 | 1008.0 |
| 20260506034557 | 10 | 16 | 3.2 | 11.3 | 0.00 | 0.00 | 0.00 | 85 | 1008.0 |
| 20260506034035 | 10 | 24 | 4.8 | 12.9 | 0.00 | 0.00 | 0.00 | 85 | 1008.0 |
| 20260506033603 | 10 | 5 | 3.2 | 12.9 | 0.00 | 0.00 | 0.00 | 85 | 1008.0 |
| 20260506033051 | 10 | 43 | 4.8 | 8.0 | 0.00 | 0.00 | 0.00 | 85 | 1008.1 |
| 20260506032536 | 10 | 59 | 3.2 | 9.7 | 0.00 | 0.00 | 0.00 | 84 | 1008.1 |
| 20260506032027 | 10 | 34 | 3.2 | 9.7 | 0.00 | 0.00 | 0.00 | 84 | 1008.1 |
| 20260506031552 | 10 | 18 | 4.8 | 11.3 | 0.00 | 0.00 | 0.00 | 84 | 1008.1 |
| 20260506031041 | 10 | 360 | 3.2 | 14.5 | 0.00 | 0.00 | 0.00 | 84 | 1008.1 |
| 20260506030546 | 10 | 26 | 3.2 | 8.0 | 0.00 | 0.00 | 0.00 | 84 | 1008.1 |
| 20260506030030 | 10 | 50 | 4.8 | 11.3 | 0.00 | 0.00 | 0.00 | 84 | 1008.2 |
| 20260506025552 | 10 | 57 | 6.4 | 11.3 | 0.00 | 0.00 | 0.00 | 84 | 1008.2 |
| 20260506025030 | 10 | 304 | 6.4 | 12.9 | 0.00 | 0.00 | 0.00 | 84 | 1008.2 |
| 20260506024600 | 10 | 5 | 4.8 | 12.9 | 0.00 | 0.00 | 0.00 | 84 | 1008.3 |
| 20260506024048 | 10 | 30 | 4.8 | 12.9 | 0.00 | 0.00 | 0.00 | 84 | 1008.3 |
| 20260506023536 | 10 | 5 | 4.8 | 11.3 | 0.00 | 0.00 | 0.00 | 84 | 1008.3 |
| 20260506023042 | 9 | 24 | 4.8 | 11.3 | 0.00 | 0.00 | 0.00 | 84 | 1008.2 |
| 20260506022532 | 9 | 32 | 3.2 | 12.9 | 0.00 | 0.00 | 0.00 | 84 | 1008.3 |
| 20260506022037 | 9 | 33 | 6.4 | 12.9 | 0.00 | 0.00 | 0.00 | 84 | 1008.3 |
| 20260506021535 | 9 | 37 | 4.8 | 11.3 | 0.00 | 0.00 | 0.00 | 84 | 1008.3 |
| 20260506021029 | 9 | 355 | 6.4 | 11.3 | 0.00 | 0.00 | 0.00 | 85 | 1008.3 |
| 20260506020548 | 9 | 25 | 3.2 | 14.5 | 0.00 | 0.00 | 0.00 | 85 | 1008.3 |
| 20260506020031 | 9 | 19 | 4.8 | 14.5 | 0.00 | 0.00 | 0.00 | 85 | 1008.4 |
| 20260506015532 | 9 | 314 | 4.8 | 11.3 | 0.00 | 0.00 | 0.00 | 85 | 1008.4 |
| 20260506015030 | 9 | 19 | 3.2 | 12.9 | 0.00 | 0.00 | 0.00 | 85 | 1008.4 |
| 20260506014555 | 8 | 22 | 4.8 | 12.9 | 0.00 | 0.00 | 0.00 | 85 | 1008.3 |
| 20260506014039 | 8 | 348 | 4.8 | 12.9 | 0.00 | 0.00 | 0.00 | 85 | 1008.3 |
| 20260506013549 | 8 | 36 | 4.8 | 11.3 | 0.00 | 0.00 | 0.00 | 86 | 1008.4 |
| 20260506013040 | 8 | 338 | 4.8 | 11.3 | 0.00 | 0.00 | 0.00 | 86 | 1008.4 |
| 20260506012529 | 8 | 5 | 3.2 | 11.3 | 0.00 | 0.00 | 0.00 | 86 | 1008.4 |
| 20260506012040 | 8 | 19 | 6.4 | 11.3 | 0.00 | 0.00 | 0.00 | 87 | 1008.4 |
| 20260506011534 | 8 | 325 | 3.2 | 8.0 | 0.00 | 0.00 | 0.00 | 86 | 1008.4 |
| 20260506011048 | 8 | 331 | 1.6 | 6.4 | 0.00 | 0.00 | 0.00 | 86 | 1008.5 |
| 20260506010540 | 8 | 9 | 1.6 | 6.4 | 0.00 | 0.00 | 0.00 | 86 | 1008.5 |
| 20260506010040 | 8 | 355 | 1.6 | 4.8 | 0.00 | 0.00 | 0.00 | 86 | 1008.5 |
| 20260506005542 | 8 | 5 | 1.6 | 4.8 | 0.00 | 0.00 | 0.00 | 85 | 1008.6 |
| 20260506005055 | 8 | 329 | 1.6 | 9.7 | 0.00 | 0.00 | 0.00 | 85 | 1008.7 |
| 20260506004549 | 9 | 360 | 3.2 | 9.7 | 0.00 | 0.00 | 0.00 | 85 | 1008.8 |
| 20260506004031 | 9 | 18 | 1.6 | 8.0 | 0.00 | 0.00 | 0.00 | 85 | 1008.8 |
| 20260506003556 | 9 | 5 | 3.2 | 8.0 | 0.00 | 0.00 | 0.00 | 84 | 1008.8 |
| 20260506003036 | 9 | 30 | 1.6 | 8.0 | 0.00 | 0.00 | 0.00 | 84 | 1008.9 |
| 20260506002603 | 9 | 11 | 3.2 | 6.4 | 0.00 | 0.00 | 0.00 | 84 | 1008.9 |
| 20260506002110 | 9 | 336 | 1.6 | 4.8 | 0.00 | 0.00 | 0.00 | 84 | 1009.0 |
| 20260506001626 | 9 | 336 | 1.6 | 4.8 | 0.00 | 0.00 | 0.00 | 84 | 1009.0 |
| 20260506001051 | 9 | 346 | 1.6 | 4.8 | 0.00 | 0.00 | 0.00 | 84 | 1009.0 |
| 20260506000547 | 9 | 335 | 1.6 | 9.7 | 0.00 | 0.00 | 0.00 | 83 | 1009.0 |
| 20260506000038 | 9 | 13 | 3.2 | 9.7 | 0.00 | 0.00 | 0.00 | 83 | 1009.0 |
| 20260505235603 | 9 | 22 | 3.2 | 11.3 | 0.00 | 0.00 | 0.00 | 83 | 1009.1 |
| 20260505235039 | 9 | 5 | 3.2 | 9.7 | 0.00 | 0.00 | 0.00 | 83 | 1009.1 |
| 20260505234537 | 9 | 19 | 4.8 | 9.7 | 0.00 | 0.00 | 0.00 | 83 | 1009.1 |
| 20260505234031 | 9 | 355 | 1.6 | 9.7 | 0.00 | 0.00 | 0.00 | 82 | 1009.1 |
| 20260505233532 | 9 | 41 | 3.2 | 9.7 | 0.00 | 0.00 | 0.00 | 82 | 1009.2 |
| 20260505233036 | 8 | 9 | 3.2 | 9.7 | 0.00 | 0.00 | 0.00 | 82 | 1009.2 |
| 20260505232604 | 8 | 60 | 4.8 | 9.7 | 0.00 | 0.00 | 0.00 | 82 | 1009.3 |
| 20260505232028 | 8 | 12 | 3.2 | 8.0 | 0.00 | 0.00 | 0.00 | 83 | 1009.3 |
| 20260505231541 | 8 | 5 | 4.8 | 9.7 | 0.00 | 0.00 | 0.00 | 83 | 1009.4 |
| 20260505231055 | 8 | 355 | 4.8 | 11.3 | 0.00 | 0.00 | 0.00 | 82 | 1009.5 |
| 20260505230556 | 8 | 47 | 3.2 | 11.3 | 0.00 | 0.00 | 0.00 | 82 | 1009.5 |
| 20260505230025 | 8 | 360 | 3.2 | 8.0 | 0.00 | 0.00 | 0.00 | 82 | 1009.5 |
| 20260505225537 | 8 | 360 | 3.2 | 9.7 | 0.00 | 0.00 | 0.00 | 82 | 1009.5 |
| 20260505225033 | 8 | 38 | 4.8 | 9.7 | 0.00 | 0.00 | 0.00 | 82 | 1009.5 |
| 20260505224540 | 8 | 30 | 3.2 | 9.7 | 0.00 | 0.00 | 0.00 | 82 | 1009.5 |
| 20260505224046 | 8 | 5 | 4.8 | 9.7 | 0.00 | 0.00 | 0.00 | 81 | 1009.5 |
| 20260505223543 | 8 | 28 | 3.2 | 9.7 | 0.00 | 0.00 | 0.00 | 81 | 1009.5 |
| 20260505223029 | 8 | 349 | 4.8 | 11.3 | 0.00 | 0.00 | 0.00 | 81 | 1009.5 |
| 20260505222535 | 8 | 24 | 4.8 | 12.9 | 0.00 | 0.00 | 0.00 | 81 | 1009.5 |
| 20260505222037 | 8 | 360 | 3.2 | 12.9 | 0.00 | 0.00 | 0.00 | 80 | 1009.6 |
| 20260505221553 | 9 | 44 | 4.8 | 12.9 | 0.00 | 0.00 | 0.00 | 80 | 1009.6 |
| 20260505221045 | 9 | 344 | 3.2 | 9.7 | 0.00 | 0.00 | 0.00 | 80 | 1009.6 |
| 20260505220532 | 9 | 355 | 3.2 | 9.7 | 0.00 | 0.00 | 0.00 | 80 | 1009.6 |
| 20260505220049 | 9 | 31 | 3.2 | 9.7 | 0.00 | 0.00 | 0.00 | 80 | 1009.7 |
| 20260505215537 | 9 | 321 | 3.2 | 9.7 | 0.00 | 0.00 | 0.00 | 79 | 1009.7 |
| 20260505215041 | 9 | 39 | 3.2 | 11.3 | 0.00 | 0.00 | 0.00 | 79 | 1009.7 |
| 20260505214542 | 9 | 323 | 4.8 | 11.3 | 0.00 | 0.00 | 0.00 | 79 | 1009.8 |
| 20260505214036 | 9 | 319 | 4.8 | 9.7 | 0.00 | 0.00 | 0.00 | 79 | 1009.8 |
| 20260505213550 | 9 | 355 | 3.2 | 9.7 | 0.00 | 0.00 | 0.00 | 79 | 1009.8 |
| 20260505213111 | 9 | 24 | 4.8 | 9.7 | 0.00 | 0.00 | 0.00 | 79 | 1009.8 |
| 20260505212535 | 9 | 19 | 3.2 | 11.3 | 0.00 | 0.00 | 0.00 | 79 | 1009.9 |
| 20260505212042 | 9 | 26 | 4.8 | 11.3 | 0.00 | 0.00 | 0.00 | 78 | 1009.9 |
| 20260505211531 | 9 | 360 | 4.8 | 11.3 | 0.00 | 0.00 | 0.00 | 78 | 1009.9 |
| 20260505211037 | 10 | 19 | 3.2 | 14.5 | 0.00 | 0.00 | 0.00 | 78 | 1009.8 |
| 20260505210530 | 10 | 264 | 6.4 | 14.5 | 0.00 | 0.00 | 0.00 | 79 | 1009.9 |
| 20260505210029 | 10 | 22 | 4.8 | 14.5 | 0.00 | 0.00 | 0.00 | 79 | 1009.9 |
| 20260505205602 | 10 | 5 | 4.8 | 14.5 | 0.00 | 0.00 | 0.00 | 79 | 1010.0 |
| 20260505205040 | 10 | 16 | 4.8 | 12.9 | 0.00 | 0.00 | 0.00 | 80 | 1010.1 |
| 20260505204551 | 10 | 23 | 4.8 | 11.3 | 0.00 | 0.00 | 0.00 | 80 | 1010.0 |